ゲーレルス彗星

270P/Gehrels (1996)

English version
Home page
Updated on October 13, 2012

---------------------------------------------------------------------

・ プロフィール

符号 270P/1997 C1
発見日 1997年2月1日
発見光度 17.9等
発見者 Tom Gehrels (Lunar and Planetary Laboratory)

・ 軌道要素

Epoch 1996 Feb. 7.0 TT = JDT 2450120.5
T 1996 Jan. 29.20478 TT                                 MPC
q   3.5652160            (2000.0)            P               Q
n   0.05668270     Peri.  211.34977     +0.22090024     -0.97463398
a   6.7117489      Node   225.91581     +0.90485255     +0.21855649
e   0.4688097      Incl.    2.86791     +0.36392986     +0.04818370
P  17.4
From 162 observations 1997 Feb. 1-2012 Oct. 8, mean residual 0".7.

・ 星図

・ 1995年 7月 2日〜1996年 8月 5日
・ 1996年 6月26日〜1998年 6月16日

・ 光度変化

        m1 = 3.0 + 5 logΔ + 20 log r

---------------------------------------------------------------------

軌道要素はM.P.E.C. 2012-T24に掲載されたものです。
星図は StellaNavigator Ver.2.0 for Windows (アストロアーツ編著 / アスキー出版局刊) で作成したものです。
光度グラフはComet for Windowsで作成したものです。

---------------------------------------------------------------------

Copyright(C) Seiichi Yoshida (comet@aerith.net). All rights reserved.